Cosmos 2298 Rocket - Orbit

View from above orbital plane
View from above orbital plane
View from above satellite
View from above satellite

Ground track
Ground track

The orbit data is extracted from the following two-line orbital elements,

1 23432U 94083B   13143.18610304  .00000083  00000-0  39863-4 0  5678
2 23432 074.0322 134.7740 0006017 331.4013 106.0066 14.33141368963392
Epoch (UTC): 23 May 2013 04:27:59
Eccentricity: 0.0006017
inclination: 74.0322°
perigee height: 777 km
apogee height: 785 km
right ascension of ascending node: 134.7740°
argument of perigee: 331.4013°
revolutions per day: 14.33141368
mean anomaly at epoch: 106.0066°
orbit number at epoch: 96339

The dashed part of the orbit path shows where the satellite is in the earth's shadow,  

Developed and maintained by Chris Peat, Heavens-Above GmbH. Please read the updated FAQ before sending e-mail. Imprint. DLR